DAL1601 KBOS-KJFK

Flight info

Callsign DAL1601
Flight time 0h 44m
Altitude 20000
Route SSOXS7 SSOXS BUZRD SEY PARCH4
Aircraft A339/H-SADE1E2E3GHIJ3J5M1P2RWXY/LB2D1

Departure

Time 2026-05-09 06:15
Airport Boston Logan International Airport (KBOS)

Arrival

Time 2026-05-09 06:59
Airport John F. Kennedy International Airport (KJFK)
Time Latitude Longitude Altitude Speed Heading
2026-05-09 05:45 42.36217 -71.02429 25 ft 0 kts 287°
2026-05-09 06:00 42.36214 -71.02418 26 ft 1 kts 287°
2026-05-09 06:00 42.36211 -71.02406 26 ft 2 kts 281°
2026-05-09 06:01 42.36212 -71.02386 26 ft 2 kts 253°
2026-05-09 06:01 42.36218 -71.02367 26 ft 2 kts 232°
2026-05-09 06:01 42.36228 -71.02353 26 ft 2 kts 211°
2026-05-09 06:01 42.36242 -71.02345 26 ft 2 kts 189°
2026-05-09 06:02 42.36249 -71.02344 26 ft 1 kts 182°
2026-05-09 06:02 42.36251 -71.02344 26 ft 0 kts 182°
2026-05-09 06:08 42.36247 -71.02344 25 ft 1 kts 182°
2026-05-09 06:08 42.36244 -71.02344 25 ft 0 kts 182°
2026-05-09 06:08 42.36221 -71.02346 26 ft 11 kts 183°
2026-05-09 06:09 42.36116 -71.02336 26 ft 15 kts 160°
2026-05-09 06:09 42.36029 -71.02244 26 ft 16 kts 124°
2026-05-09 06:09 42.35969 -71.02112 26 ft 16 kts 121°
2026-05-09 06:09 42.35908 -71.01976 27 ft 16 kts 120°
2026-05-09 06:10 42.35857 -71.01834 28 ft 16 kts 109°
2026-05-09 06:10 42.35830 -71.01678 28 ft 17 kts 102°
2026-05-09 06:10 42.35846 -71.01577 29 ft 10 kts 38°
2026-05-09 06:10 42.35927 -71.01528 28 ft 14 kts 19°
2026-05-09 06:11 42.36035 -71.01477 28 ft 17 kts 19°
2026-05-09 06:11 42.36156 -71.01420 27 ft 18 kts 20°
2026-05-09 06:11 42.36287 -71.01357 27 ft 21 kts 19°
2026-05-09 06:11 42.36429 -71.01291 26 ft 21 kts 19°
2026-05-09 06:12 42.36569 -71.01224 25 ft 21 kts 19°
2026-05-09 06:12 42.36710 -71.01155 25 ft 21 kts 17°
2026-05-09 06:12 42.36839 -71.01211 24 ft 20 kts 317°
2026-05-09 06:12 42.36937 -71.01344 24 ft 20 kts 314°
2026-05-09 06:13 42.37037 -71.01482 24 ft 20 kts 314°
2026-05-09 06:13 42.37137 -71.01612 24 ft 20 kts 316°
2026-05-09 06:13 42.37236 -71.01741 24 ft 18 kts 315°
2026-05-09 06:13 42.37309 -71.01839 24 ft 13 kts 323°
2026-05-09 06:14 42.37373 -71.01832 24 ft 9 kts 37°
2026-05-09 06:14 42.37389 -71.01751 24 ft 9 kts 112°
2026-05-09 06:14 42.37360 -71.01699 24 ft 4 kts 133°
2026-05-09 06:14 42.37359 -71.01698 24 ft 0 kts 133°
2026-05-09 06:15 42.37278 -71.01585 24 ft 50 kts 135°
2026-05-09 06:15 42.36861 -71.01028 24 ft 116 kts 135°
2026-05-09 06:15 42.36153 -71.00079 93 ft 161 kts 136°
2026-05-09 06:15 42.35352 -70.98998 623 ft 165 kts 136°
2026-05-09 06:16 42.34544 -70.97890 1226 ft 170 kts 134°
2026-05-09 06:16 42.33980 -70.96493 1814 ft 175 kts 109°
2026-05-09 06:16 42.33668 -70.94846 2174 ft 191 kts 103°
2026-05-09 06:16 42.33369 -70.93012 2512 ft 209 kts 103°
2026-05-09 06:17 42.33031 -70.91033 2851 ft 228 kts 104°
2026-05-09 06:17 42.32608 -70.88882 3206 ft 248 kts 106°
2026-05-09 06:17 42.32319 -70.86494 3624 ft 267 kts 89°
2026-05-09 06:17 42.32581 -70.83968 4278 ft 276 kts 76°
2026-05-09 06:18 42.33031 -70.81463 5068 ft 279 kts 78°
2026-05-09 06:18 42.32988 -70.78838 5779 ft 287 kts 106°
2026-05-09 06:18 42.32229 -70.76372 6552 ft 291 kts 116°
2026-05-09 06:18 42.31327 -70.73892 7249 ft 297 kts 118°
2026-05-09 06:19 42.30411 -70.71408 7962 ft 304 kts 117°
2026-05-09 06:19 42.29307 -70.68957 8642 ft 308 kts 135°
2026-05-09 06:19 42.27635 -70.67201 9298 ft 307 kts 158°
2026-05-09 06:19 42.25658 -70.66196 10030 ft 306 kts 171°
2026-05-09 06:20 42.23605 -70.65459 10736 ft 312 kts 172°
2026-05-09 06:20 42.21458 -70.64663 11162 ft 331 kts 171°
2026-05-09 06:20 42.19188 -70.63720 11663 ft 346 kts 169°
2026-05-09 06:20 42.16856 -70.62687 12092 ft 362 kts 168°
2026-05-09 06:21 42.15612 -70.62196 12365 ft 363 kts 174°
2026-05-09 06:21 42.14376 -70.61955 12706 ft 359 kts 184°
2026-05-09 06:21 42.12060 -70.62160 13481 ft 349 kts 199°
2026-05-09 06:21 42.09732 -70.63077 14288 ft 346 kts 206°
2026-05-09 06:22 42.08226 -70.63753 14775 ft 348 kts 206°
2026-05-09 06:22 42.05949 -70.64789 15487 ft 352 kts 206°
2026-05-09 06:22 42.03925 -70.65704 16108 ft 356 kts 206°
2026-05-09 06:22 42.03482 -70.65903 16245 ft 357 kts 206°
2026-05-09 06:23 42.01230 -70.66907 16903 ft 361 kts 206°
2026-05-09 06:23 41.98834 -70.67969 17592 ft 365 kts 206°
2026-05-09 06:23 41.96414 -70.69037 18297 ft 369 kts 206°
2026-05-09 06:23 41.93978 -70.70107 18962 ft 373 kts 206°
2026-05-09 06:24 41.91506 -70.71191 19591 ft 376 kts 207°
2026-05-09 06:24 41.89008 -70.72285 19933 ft 377 kts 206°
2026-05-09 06:24 41.86627 -70.73345 20004 ft 376 kts 208°
2026-05-09 06:24 41.84201 -70.74609 20010 ft 373 kts 211°
2026-05-09 06:25 41.81859 -70.76056 20002 ft 367 kts 215°
2026-05-09 06:25 41.79630 -70.77660 20006 ft 366 kts 217°
2026-05-09 06:25 41.77387 -70.79347 19999 ft 366 kts 217°
2026-05-09 06:25 41.75261 -70.80943 19999 ft 366 kts 218°
2026-05-09 06:26 41.73048 -70.82605 19997 ft 366 kts 217°
2026-05-09 06:26 41.70805 -70.84287 19997 ft 366 kts 217°
2026-05-09 06:26 41.68703 -70.85863 20000 ft 365 kts 218°
2026-05-09 06:26 41.66470 -70.87536 20002 ft 366 kts 217°
2026-05-09 06:27 41.64268 -70.89185 19998 ft 366 kts 217°
2026-05-09 06:27 41.62033 -70.90856 19997 ft 366 kts 218°
2026-05-09 06:27 41.59818 -70.92510 19968 ft 366 kts 217°
2026-05-09 06:27 41.57583 -70.94199 19970 ft 363 kts 219°
2026-05-09 06:28 41.55610 -70.96004 19982 ft 358 kts 225°
2026-05-09 06:28 41.53754 -70.98135 19971 ft 353 kts 231°
2026-05-09 06:28 41.52093 -71.00517 19982 ft 349 kts 237°
2026-05-09 06:28 41.50536 -71.03019 19990 ft 348 kts 237°
2026-05-09 06:29 41.49001 -71.05516 19969 ft 348 kts 237°
2026-05-09 06:29 41.47481 -71.07992 19966 ft 348 kts 237°
2026-05-09 06:29 41.45939 -71.10503 19992 ft 349 kts 237°
2026-05-09 06:29 41.44401 -71.13000 19983 ft 349 kts 237°
2026-05-09 06:30 41.42867 -71.15492 19991 ft 348 kts 237°
2026-05-09 06:30 41.41349 -71.17956 19984 ft 349 kts 237°
2026-05-09 06:30 41.39804 -71.20462 19989 ft 348 kts 237°
2026-05-09 06:30 41.38264 -71.22955 20001 ft 348 kts 237°
2026-05-09 06:31 41.36722 -71.25451 19992 ft 347 kts 237°
2026-05-09 06:31 41.35198 -71.27911 19996 ft 348 kts 237°
2026-05-09 06:31 41.33659 -71.30401 20006 ft 347 kts 237°
2026-05-09 06:31 41.32125 -71.32875 19990 ft 348 kts 237°
2026-05-09 06:32 41.30574 -71.35377 19993 ft 348 kts 237°
2026-05-09 06:32 41.29103 -71.37749 19994 ft 348 kts 237°
2026-05-09 06:32 41.27577 -71.40207 19986 ft 348 kts 237°
2026-05-09 06:33 41.24481 -71.45188 19989 ft 347 kts 237°
2026-05-09 06:33 41.23301 -71.47085 19983 ft 348 kts 237°
2026-05-09 06:33 41.21845 -71.49418 19991 ft 349 kts 237°
2026-05-09 06:34 41.18778 -71.54395 20002 ft 346 kts 240°
2026-05-09 06:34 41.17540 -71.57122 20002 ft 340 kts 249°
2026-05-09 06:34 41.16660 -71.59999 20002 ft 335 kts 256°
2026-05-09 06:34 41.16111 -71.63010 20001 ft 334 kts 262°
2026-05-09 06:35 41.15738 -71.65865 20009 ft 334 kts 262°
2026-05-09 06:35 41.15354 -71.68898 20001 ft 334 kts 263°
2026-05-09 06:35 41.14975 -71.71928 20000 ft 334 kts 263°
2026-05-09 06:35 41.14600 -71.74940 19996 ft 334 kts 263°
2026-05-09 06:36 41.14563 -71.75233 19998 ft 334 kts 263°
2026-05-09 06:36 41.14225 -71.77948 20006 ft 334 kts 263°
2026-05-09 06:36 41.13929 -71.80331 19999 ft 335 kts 263°
2026-05-09 06:36 41.13548 -71.83381 20002 ft 334 kts 263°
2026-05-09 06:37 41.13195 -71.86191 19997 ft 334 kts 263°
2026-05-09 06:37 41.12833 -71.89085 19995 ft 334 kts 263°
2026-05-09 06:37 41.12454 -71.92096 20008 ft 334 kts 263°
2026-05-09 06:37 41.12067 -71.95161 20001 ft 334 kts 263°
2026-05-09 06:38 41.11759 -71.97598 20003 ft 334 kts 263°
2026-05-09 06:38 41.11373 -72.00639 20006 ft 334 kts 263°
2026-05-09 06:38 41.10983 -72.03703 19957 ft 335 kts 263°
2026-05-09 06:38 41.10596 -72.06758 19703 ft 334 kts 263°
2026-05-09 06:39 41.10183 -72.09747 19455 ft 333 kts 261°
2026-05-09 06:39 41.09648 -72.12750 19195 ft 334 kts 258°
2026-05-09 06:39 41.09002 -72.15712 18951 ft 335 kts 256°
2026-05-09 06:39 41.08281 -72.18642 18705 ft 335 kts 255°
2026-05-09 06:40 41.07568 -72.21537 18450 ft 334 kts 256°
2026-05-09 06:40 41.06842 -72.24480 18197 ft 334 kts 255°
2026-05-09 06:40 41.06123 -72.27387 17951 ft 333 kts 256°
2026-05-09 06:40 41.05407 -72.30272 17712 ft 332 kts 255°
2026-05-09 06:41 41.04685 -72.33182 17467 ft 332 kts 256°
2026-05-09 06:41 41.03964 -72.36081 17224 ft 331 kts 255°
2026-05-09 06:41 41.03254 -72.38935 16976 ft 330 kts 256°
2026-05-09 06:41 41.02533 -72.41830 16727 ft 330 kts 256°
2026-05-09 06:42 41.01816 -72.44692 16508 ft 329 kts 256°
2026-05-09 06:42 41.01091 -72.47593 16289 ft 328 kts 255°
2026-05-09 06:42 41.00394 -72.50418 16089 ft 327 kts 256°
2026-05-09 06:42 40.99741 -72.53284 15831 ft 324 kts 257°
2026-05-09 06:43 40.99102 -72.56136 15375 ft 323 kts 257°
2026-05-09 06:43 40.98470 -72.58975 14902 ft 322 kts 257°
2026-05-09 06:43 40.97835 -72.61817 14440 ft 320 kts 257°
2026-05-09 06:43 40.97202 -72.64609 14009 ft 319 kts 257°
2026-05-09 06:44 40.96565 -72.67392 13592 ft 317 kts 256°
2026-05-09 06:44 40.95937 -72.70184 13209 ft 314 kts 256°
2026-05-09 06:44 40.95331 -72.72916 12798 ft 312 kts 257°
2026-05-09 06:44 40.94723 -72.75672 12366 ft 310 kts 257°
2026-05-09 06:45 40.94134 -72.78380 12033 ft 306 kts 257°
2026-05-09 06:45 40.93581 -72.80941 11987 ft 308 kts 257°
2026-05-09 06:45 40.93154 -72.82931 11985 ft 309 kts 257°
2026-05-09 06:45 40.92642 -72.85329 11986 ft 309 kts 257°
2026-05-09 06:46 40.92068 -72.88039 11985 ft 309 kts 257°
2026-05-09 06:46 40.91491 -72.90783 11984 ft 308 kts 257°
2026-05-09 06:46 40.90844 -72.93459 11802 ft 306 kts 253°
2026-05-09 06:46 40.90228 -72.96146 11414 ft 300 kts 257°
2026-05-09 06:47 40.89711 -72.98728 10958 ft 284 kts 258°
2026-05-09 06:47 40.89257 -73.01080 10628 ft 268 kts 258°
2026-05-09 06:47 40.88811 -73.03392 10334 ft 251 kts 258°
2026-05-09 06:47 40.88393 -73.05556 10065 ft 237 kts 258°
2026-05-09 06:48 40.88002 -73.07598 9809 ft 227 kts 258°
2026-05-09 06:48 40.87643 -73.09489 9623 ft 224 kts 258°
2026-05-09 06:48 40.87265 -73.11501 9345 ft 225 kts 258°
2026-05-09 06:48 40.86905 -73.13415 9092 ft 225 kts 258°
2026-05-09 06:49 40.86593 -73.15104 8876 ft 225 kts 258°
2026-05-09 06:49 40.86226 -73.17097 8636 ft 224 kts 258°
2026-05-09 06:49 40.85865 -73.19094 8374 ft 224 kts 258°
2026-05-09 06:49 40.85506 -73.21091 8112 ft 223 kts 258°
2026-05-09 06:50 40.85152 -73.23074 7600 ft 223 kts 258°
2026-05-09 06:50 40.84808 -73.25055 7105 ft 222 kts 258°
2026-05-09 06:50 40.84518 -73.26771 6679 ft 221 kts 258°
2026-05-09 06:50 40.84193 -73.28752 6180 ft 221 kts 258°
2026-05-09 06:51 40.83881 -73.30736 5654 ft 222 kts 258°
2026-05-09 06:51 40.83577 -73.32716 5149 ft 222 kts 258°
2026-05-09 06:51 40.83278 -73.34710 4657 ft 222 kts 258°
2026-05-09 06:51 40.82987 -73.36716 4188 ft 223 kts 258°
2026-05-09 06:52 40.82701 -73.38751 3948 ft 223 kts 258°
2026-05-09 06:52 40.82428 -73.40743 3741 ft 222 kts 258°
2026-05-09 06:52 40.82154 -73.42741 3519 ft 222 kts 258°
2026-05-09 06:52 40.81878 -73.44765 3278 ft 223 kts 258°
2026-05-09 06:53 40.81603 -73.46798 3051 ft 224 kts 258°
2026-05-09 06:53 40.81337 -73.48798 2852 ft 223 kts 258°
2026-05-09 06:53 40.81069 -73.50840 2636 ft 223 kts 258°
2026-05-09 06:53 40.80811 -73.52839 2426 ft 223 kts 258°
2026-05-09 06:54 40.80550 -73.54864 2214 ft 223 kts 258°
2026-05-09 06:54 40.80291 -73.56888 2014 ft 223 kts 259°
2026-05-09 06:54 40.80030 -73.58907 1978 ft 225 kts 259°
2026-05-09 06:54 40.79771 -73.60912 1968 ft 219 kts 259°
2026-05-09 06:55 40.79527 -73.62847 1963 ft 209 kts 257°
2026-05-09 06:55 40.78937 -73.64518 1950 ft 196 kts 223°
2026-05-09 06:55 40.77836 -73.65440 1961 ft 185 kts 206°
2026-05-09 06:55 40.76693 -73.66137 1968 ft 174 kts 206°
2026-05-09 06:56 40.75667 -73.66818 1966 ft 162 kts 209°
2026-05-09 06:56 40.74731 -73.67503 1966 ft 161 kts 210°
2026-05-09 06:56 40.73774 -73.68241 1969 ft 161 kts 211°
2026-05-09 06:56 40.72827 -73.68984 1916 ft 162 kts 211°
2026-05-09 06:57 40.71867 -73.69739 1703 ft 159 kts 210°
2026-05-09 06:57 40.70925 -73.70478 1495 ft 152 kts 210°
2026-05-09 06:57 40.70040 -73.71171 1290 ft 145 kts 210°
2026-05-09 06:57 40.69185 -73.71840 1096 ft 139 kts 210°
2026-05-09 06:58 40.68374 -73.72475 913 ft 132 kts 210°
2026-05-09 06:58 40.67585 -73.73093 751 ft 134 kts 210°
2026-05-09 06:58 40.66779 -73.73731 576 ft 136 kts 210°
2026-05-09 06:58 40.65964 -73.74372 381 ft 136 kts 210°
2026-05-09 06:59 40.65141 -73.75011 195 ft 138 kts 210°
2026-05-09 06:59 40.64317 -73.75652 41 ft 138 kts 210°
2026-05-09 06:59 40.63565 -73.76232 29 ft 103 kts 212°
2026-05-09 06:59 40.63131 -73.76582 29 ft 34 kts 213°
2026-05-09 07:00 40.62993 -73.76756 29 ft 26 kts 234°
2026-05-09 07:00 40.62936 -73.76956 29 ft 21 kts 282°
2026-05-09 07:00 40.63009 -73.77148 29 ft 26 kts 300°
2026-05-09 07:00 40.63101 -73.77352 29 ft 26 kts 301°
2026-05-09 07:01 40.63195 -73.77557 29 ft 25 kts 301°
2026-05-09 07:01 40.63287 -73.77756 29 ft 24 kts 301°
2026-05-09 07:01 40.63368 -73.77908 29 ft 9 kts 334°
2026-05-09 07:01 40.63448 -73.77876 29 ft 16 kts 28°
2026-05-09 07:02 40.63552 -73.77847 29 ft 16 kts 333°
2026-05-09 07:02 40.63681 -73.77898 29 ft 21 kts 349°
2026-05-09 07:02 40.63775 -73.77947 29 ft 10 kts 292°
2026-05-09 07:02 40.63779 -73.78032 29 ft 0 kts 263°